Погода в Чепце

Россия / Удмуртская Республика     57°53′22″N   53°24′18″E
темп.,
°C
ветер,
м/с
пор.,
м/с
влажн.,
%
обл.,
%
осадки,
мм/ч
давл.,
гПа
погр.,
м
10 мая, пн
пн1001:00+12вюв226916 0.0 101713
04:00+11юв22695 0.0 101820
07:00+14ююв266499 0.0 1019178
10:00+16ю156389 0.0 1020211
13:00+23зюз3435100 0.0 10212199
16:00+21з4444100 0.0 10221266
19:00+19с1153100 0.0 102211
22:00+14ссв3978100 0.0 1024271
11 мая, вт
вт1101:00+14в2384100 0.0 102591
04:00+12ссв2491100 0.0 102674
07:00+14ссв348260 0.0 1027350
10:00+18с216578 0.0 1027824
13:00+21с225342 0.1 10271273
16:00+22сз344561 0.1 10271984
19:00+18всв35645 0.0 1028268
22:00+13св228210 0.0 102935
12 мая, ср
ср1201:00+12всв248555 0.0 103086
04:00+11всв2378100 0.0 103154
07:00+14всв23625 0.0 1031228
10:00+19всв22480 0.0 1031838
13:00+23юв11390 0.0 10301529
16:00+24зсз23361 0.0 10292013
19:00+21ссз22530 0.0 102833
22:00+15всв11620 0.0 102911
13 мая, чт
чт1301:00+14в11685 0.0 102911
04:00+13ссв00730 0.0 102910
07:00+17св00600 0.0 1030131
10:00+23з11430 0.0 1029887
13:00+25зсз22344 0.0 10282210
16:00+26сз233320 0.0 10272358
19:00+22с1149100 0.0 102612
22:00+19зюз1158100 0.0 102611
14 мая, пт
пт1401:00+18зюз226273 0.0 102626
04:00+15зюз127127 0.0 102612
07:00+19зюз23575 0.0 1026172
10:00+24юз25405 0.0 10251502
13:00+26юз453310 0.0 10242388
16:00+26зюз453310 0.0 10232319
19:00+23юз23495 0.0 102265
22:00+17ююз27735 0.6 1022117